Regional Weather Roundup
Issued by NWS

Home | Current Version | Previous Version | Text Only | Print | Product List | Glossary On
Versions: 1 2 3 4 5 6 7 8 9 10 11 12 13 14 15 16 17 18 19 20 21 22 23 24 25 26 27 28 29 30 31 32 33 34 35 36 37 38 39 40 41 42 43 44 45 46 47 48 49 50
388
ASUS43 KOAX 231810
RWRNE

WEATHER ROUNDUP FOR NEBRASKA
NATIONAL WEATHER SERVICE OMAHA NE
100 PM CDT SAT SEP 23 2017

NOTES: SATELLITE DATA IS BEING USED TO AUGMENT CLOUD COVER ABOVE
       12000 FEET.
       "FAIR" INDICATES FEW OR NO CLOUDS BELOW 12,000 FEET WITH NO
       SIGNIFICANT WEATHER AND/OR OBSTRUCTIONS TO VISIBILITY.


NEZ001>004-019>022-054>056-231900-
NEBRASKA PANHANDLE

CITY           SKY/WX    TMP DP  RH WIND       PRES   REMARKS
SCOTTSBLUFF    LGT RAIN  46  42  86 N8        30.01F
6HR MIN TEMP:  45; 6HR MAX TEMP:  46; 6HR PCP: TRACE;

ALLIANCE       LGT RAIN  44  43  96 N9        30.03R FOG
6HR MIN TEMP:  43; 6HR MAX TEMP:  45; 6HR PCP: TRACE;

CHADRON        LGT RAIN  45  43  93 NE8       30.05F FOG
6HR MIN TEMP:  44; 6HR MAX TEMP:  45; 6HR PCP:  0.02;

GORDON         CLOUDY    46  44  94 N10       30.02F FOG
6HR MIN TEMP:  43; 6HR MAX TEMP:  46;

KIMBALL        CLOUDY    44  43  99 NE5       30.03R FOG
SIDNEY         LGT RAIN  46  45  96 NE8       30.02S
6HR MIN TEMP:  44; 6HR MAX TEMP:  47; 6HR PCP: TRACE;

$$

NEZ057>060-069>072-079>082-231900-
SOUTHWEST NEBRASKA

CITY           SKY/WX    TMP DP  RH WIND       PRES   REMARKS
NORTH PLATTE   LGT RAIN  54  53  97 NE10      29.95F FOG
6HR MIN TEMP:  52; 6HR MAX TEMP:  54; 6HR PCP: TRACE;

IMPERIAL       CLOUDY    53  48  83 NW6       29.97R
6HR MIN TEMP:  51; 6HR MAX TEMP:  54;

LEXINGTON      CLOUDY    75  62  64 NE3       29.91S
MCCOOK         CLOUDY    80  65  59 S15G21    29.89S
6HR MIN TEMP:  70; 6HR MAX TEMP:  80;

OGALLALA       TSTM      51  50  95 NE9       29.95F
$$

NEZ005>010-023>029-035>040-094-231900-
NORTH CENTRAL NEBRASKA

CITY           SKY/WX    TMP DP  RH WIND       PRES   REMARKS
VALENTINE      CLOUDY    51  49  92 N10       30.00F FOG
6HR MIN TEMP:  48; 6HR MAX TEMP:  51; 6HR PCP:  0.32;

AINSWORTH      CLOUDY    50  50 100 NE8       29.99F FOG
BROKEN BOW     CLOUDY    56  53  90 N10       29.94F
6HR MIN TEMP:  54; 6HR MAX TEMP:  56;

O`NEILL        TSTM      54  54 100 N9        29.96F VSB 1
ORD            MOSUNNY   72  57  59 N7        29.91F
6HR MIN TEMP:  55; 6HR MAX TEMP:  72;

THEDFORD       CLOUDY    50  49  97 NE9       29.99S FOG
$$

NEZ041-046>049-061>064-073>077-083>087-231900-
SOUTH CENTRAL NEBRASKA

CITY           SKY/WX    TMP DP  RH WIND       PRES   REMARKS
GRAND ISLAND   MOSUNNY   85  67  54 SE16G25   29.91F
6HR MIN TEMP:  67; 6HR MAX TEMP:  86;

AURORA         PTSUNNY   83  67  57 S12       29.92S
HASTINGS       PTSUNNY   78  62  57 S18G29    29.93R
6HR MIN TEMP:  71; 6HR MAX TEMP:  85;

HEBRON         SUNNY     90  65  43 S15G23    29.93F HX  91
HOLDREGE       MOSUNNY   85  62  45 S13G22    29.90F
KEARNEY        MOSUNNY   85  66  53 S22       29.89F
YORK           PTSUNNY   88  66  48 S17G23    29.92F HX  90
$$

NEZ011>018-030>034-042>045-231900-
NORTHEAST NEBRASKA

CITY           SKY/WX    TMP DP  RH WIND       PRES   REMARKS
NORFOLK        MOSUNNY   84  68  58 S16       29.90F
6HR MIN TEMP:  58; 6HR MAX TEMP:  84;

ALBION         MOSUNNY   82  69  65 S12       29.92S
BLAIR          MOSUNNY   86  68  54 S14G22    29.95F HX  90
COLUMBUS       PTSUNNY   84  68  58 S10       29.92F
FREMONT        MOSUNNY   87  67  51 SE13G21   29.94S HX  90
TEKAMAH        MOSUNNY   86  67  52 S12G20    29.93F
6HR MIN TEMP:  68; 6HR MAX TEMP:  86;

WAYNE          MOSUNNY   82  73  74 S14       29.92F
$$

NEZ050>053-065>068-078-088>093-231900-
SOUTHEAST NEBRASKA

CITY           SKY/WX    TMP DP  RH WIND       PRES   REMARKS
LINCOLN        SUNNY     90  66  45 S18G28    29.93F HX  92
6HR MIN TEMP:  70; 6HR MAX TEMP:  90;

OMAHA EPPLEY   PTSUNNY   88  67  49 S21G26    29.95F HX  91
6HR MIN TEMP:  72; 6HR MAX TEMP:  88;

BEATRICE       SUNNY     90  67  47 S18       29.95F HX  93
FALLS CITY     MOSUNNY   88  66  48 S9        29.97F HX  90
6HR MIN TEMP:  67; 6HR MAX TEMP:  88;

NEBRASKA CITY  MOSUNNY   88  68  51 S14       29.97F HX  91
PLATTSMOUTH    SUNNY     88  67  49 S14G24    29.96F HX  91
$$

NEZ044-045-051>053-067-231900-
OMAHA AREA

CITY           SKY/WX    TMP DP  RH WIND       PRES   REMARKS
OMAHA EPPLEY   PTSUNNY   88  67  49 S21G26    29.95F HX  91
6HR MIN TEMP:  72; 6HR MAX TEMP:  88;

BLAIR          MOSUNNY   86  68  54 S14G22    29.95F HX  90
FREMONT        MOSUNNY   87  67  51 SE13G21   29.94S HX  90
MILLARD        MOSUNNY   90  69  50 S16G22    29.94F HX  94
OFFUTT AFB     MOSUNNY   88  67  49 S16       29.95F HX  91
PLATTSMOUTH    SUNNY     88  67  49 S14G24    29.96F HX  91
WAHOO          MOCLDY    90  65  43 S14G22    29.94S HX  91
$$




USA.gov is the U.S. government's official web portal to all federal, state and local government web resources and services.